San Angelo, TX

11:34 PM CST on February 24, 2017 (GMT -0600)
San Angelo Regional-Mathis

Weather History for KSJT - July, 2012

Change the Weather History Date:

Monday, July 16, 2012

  Actual Average Record
Temperature  
Mean Temperature 84 °F 83 °F  
Max Temperature 99 °F 95 °F 106 °F (1978)
Min Temperature 69 °F 71 °F 62 °F (1926)
Degree Days  
Heating Degree Days 0 0  
Month to date heating degree days 0 0  
Since 1 June heating degree days 0 0  
Since 1 July heating degree days 0 0  
Cooling Degree Days 19 18  
Month to date cooling degree days 310 284  
Year to date cooling degree days 1637 1208  
Since 1 June cooling degree days 932 748  
Growing Degree Days 34 (Base 50)    
Moisture  
Dew Point 59 °F    
Average Humidity 46    
Maximum Humidity 73    
Minimum Humidity 18    
Precipitation  
Precipitation T in 0.04 in 1.40 in (1955)
Month to date precipitation 0.44 0.68  
Year to date precipitation 13.53 11.29  
Sea Level Pressure  
Sea Level Pressure 29.91 in    
Wind  
Wind Speed 9 mph (SE)    
Max Wind Speed 24 mph    
Max Gust Speed 30 mph    
Visibility 10 miles    
Events      
T = Trace of Precipitation, MM = Missing Value Source: NWS Daily Summary

Daily Weather History Graph

Daily Weather History Graph

Search for Another Location

Airport or City:

Trip Planner

Search our weather history database for the weather conditions in past years. The results will help you decide how hot, cold, wet, or windy it might be!

Date:

Astronomy

Jul. 16, 2012 Rise Set
Actual Time 6:48 AM CDT 8:47 PM CDT
Civil Twilight 6:21 AM CDT 9:14 PM CDT
Nautical Twilight 5:48 AM CDT 9:47 PM CDT
Astronomical Twilight 5:13 AM CDT 10:22 PM CDT
Moon 4:35 AM CDT (7/16) 6:53 PM CDT (7/16)
Length of Visible Light 14h 52m
Length of Day
13h 58m
Waning Crescent, 6% of the Moon is Illuminated
Jul 16
Waning Crescent
Jul 18
New
Jul 26
First Quarter
Aug 1
Full
Aug 9
Last Quarter

Hourly Weather History & Observations

Time (CDT) Temp. Heat Index Dew Point Humidity Pressure Visibility Wind Dir Wind Speed Gust Speed Precip Events Conditions
12:51 AM 77.0 °F - 57.0 °F 50% 29.93 in 10.0 mi South 5.8 mph - N/A   Clear
1:51 AM 75.0 °F - 59.0 °F 57% 29.91 in 10.0 mi SSE 6.9 mph - N/A   Clear
2:51 AM 73.0 °F - 60.1 °F 64% 29.91 in 10.0 mi South 3.5 mph - N/A   Clear
3:51 AM 73.0 °F - 61.0 °F 66% 29.91 in 10.0 mi South 3.5 mph - N/A   Clear
4:51 AM 73.0 °F - 62.1 °F 68% 29.90 in 10.0 mi South 3.5 mph - N/A   Clear
5:51 AM 70.0 °F - 60.1 °F 71% 29.93 in 10.0 mi East 6.9 mph - N/A   Clear
6:43 AM 69.8 °F - 60.8 °F 73% 30.01 in 10.0 mi East 6.9 mph - N/A   Mostly Cloudy
6:51 AM 70.0 °F - 61.0 °F 73% 29.94 in 10.0 mi ESE 8.1 mph - N/A   Mostly Cloudy
7:51 AM 72.0 °F - 61.0 °F 68% 29.94 in 10.0 mi ESE 6.9 mph - N/A   Overcast
8:51 AM 75.0 °F - 63.0 °F 66% 29.96 in 10.0 mi South 6.9 mph - N/A   Mostly Cloudy
9:02 AM 75.2 °F - 64.4 °F 69% 30.02 in 10.0 mi South 11.5 mph 16.1 mph N/A   Scattered Clouds
9:51 AM 80.1 °F 81.9 °F 64.9 °F 60% 29.95 in 10.0 mi South 9.2 mph - N/A   Clear
10:51 AM 84.0 °F 85.4 °F 64.0 °F 51% 29.94 in 10.0 mi SSW 11.5 mph - N/A   Clear
11:51 AM 89.1 °F 88.8 °F 60.1 °F 38% 29.94 in 10.0 mi South 15.0 mph 21.9 mph N/A   Clear
12:51 PM 91.9 °F 90.6 °F 57.0 °F 31% 29.92 in 10.0 mi South 16.1 mph 24.2 mph N/A   Clear
1:51 PM 93.9 °F 91.4 °F 53.1 °F 25% 29.90 in 10.0 mi South 12.7 mph 23.0 mph N/A   Clear
2:51 PM 97.0 °F - 51.1 °F 21% 29.86 in 10.0 mi SSE 13.8 mph 23.0 mph N/A   Clear
3:51 PM 98.1 °F - 48.9 °F 19% 29.84 in 10.0 mi South 16.1 mph 25.3 mph N/A   Scattered Clouds
4:51 PM 96.1 °F - 46.9 °F 19% 29.84 in 10.0 mi South 6.9 mph 16.1 mph N/A   Clear
5:29 PM 89.6 °F 88.1 °F 57.2 °F 33% 29.93 in 10.0 mi NNE 19.6 mph 29.9 mph N/A   Clear
5:51 PM 84.0 °F 84.4 °F 61.0 °F 46% 29.86 in 10.0 mi NE 10.4 mph 18.4 mph N/A   Partly Cloudy
6:51 PM 84.9 °F 86.6 °F 64.9 °F 51% 29.84 in 10.0 mi NNE 6.9 mph - 0.00 in   Overcast
7:51 PM 86.0 °F 85.4 °F 59.0 °F 40% 29.85 in 10.0 mi East 8.1 mph - 0.00 in   Partly Cloudy
8:51 PM 82.9 °F 82.8 °F 59.0 °F 44% 29.86 in 10.0 mi East 9.2 mph - N/A   Clear
9:51 PM 80.1 °F 80.7 °F 59.0 °F 48% 29.87 in 10.0 mi ESE 5.8 mph - N/A   Clear
10:51 PM 79.0 °F - 61.0 °F 54% 29.88 in 10.0 mi SE 3.5 mph - N/A   Clear
11:51 PM 82.0 °F 82.0 °F 57.9 °F 44% 29.87 in 10.0 mi SSE 8.1 mph - N/A   Clear